| time (UTC) | temp F | wind direction | speed MPH | gust MPH | rain 1hr in | rain 24hr in | rain mn in | humidity % | barometer mb |
| 20260504002310 | 58 | 36 | 1.0 | 2.0 | 0.00 | 0.00 | 0.00 | 60 | 1014.8 |
| 20260504001810 | 59 | 20 | 1.0 | 1.0 | 0.00 | 0.00 | 0.00 | 58 | 1014.8 |
| 20260504001309 | 59 | 1 | 1.0 | 2.0 | 0.00 | 0.00 | 0.00 | 58 | 1014.8 |
| 20260504000811 | 60 | 29 | 1.0 | 2.0 | 0.00 | 0.00 | 0.00 | 54 | 1014.7 |
| 20260504000309 | 60 | 86 | 1.0 | 2.0 | 0.00 | 0.00 | 0.00 | 54 | 1014.7 |
| 20260503235809 | 60 | 16 | 1.0 | 2.0 | 0.00 | 0.00 | 0.00 | 58 | 1014.8 |
| 20260503235309 | 61 | 34 | 1.0 | 2.0 | 0.00 | 0.00 | 0.00 | 52 | 1014.9 |
| 20260503234809 | 61 | 16 | 1.0 | 2.0 | 0.00 | 0.00 | 0.00 | 53 | 1014.8 |
| 20260503234309 | 61 | 82 | 1.0 | 2.0 | 0.00 | 0.00 | 0.00 | 49 | 1014.9 |
| 20260503233809 | 62 | 61 | 1.0 | 2.0 | 0.00 | 0.00 | 0.00 | 52 | 1014.9 |
| 20260503233309 | 62 | 356 | 0.0 | 2.0 | 0.00 | 0.00 | 0.00 | 48 | 1014.9 |
| 20260503232809 | 62 | 73 | 1.0 | 3.0 | 0.00 | 0.00 | 0.00 | 49 | 1014.9 |
| 20260503231809 | 62 | 72 | 1.0 | 2.0 | 0.00 | 0.00 | 0.00 | 45 | 1015.2 |
| 20260503230810 | 63 | 15 | 2.0 | 3.0 | 0.00 | 0.00 | 0.00 | 45 | 1015.4 |
| 20260503230309 | 63 | 21 | 1.0 | 2.0 | 0.00 | 0.00 | 0.00 | 44 | 1015.5 |
| 20260503225809 | 63 | 25 | 1.0 | 3.0 | 0.00 | 0.00 | 0.00 | 44 | 1015.5 |
| 20260503225309 | 63 | 67 | 2.0 | 5.0 | 0.00 | 0.00 | 0.00 | 42 | 1015.6 |
| 20260503224809 | 63 | 45 | 1.0 | 5.0 | 0.00 | 0.00 | 0.00 | 43 | 1015.8 |
| 20260503223809 | 63 | 45 | 2.0 | 5.0 | 0.00 | 0.00 | 0.00 | 41 | 1015.9 |
| 20260503223309 | 63 | 348 | 1.0 | 6.0 | 0.00 | 0.00 | 0.00 | 41 | 1015.8 |
| 20260503222809 | 63 | 0 | 2.0 | 3.0 | 0.00 | 0.00 | 0.00 | 42 | 1015.8 |
| 20260503222309 | 63 | 28 | 1.0 | 5.0 | 0.00 | 0.00 | 0.00 | 44 | 1015.8 |
| 20260503221809 | 63 | 345 | 1.0 | 5.0 | 0.00 | 0.00 | 0.00 | 43 | 1015.7 |
| 20260503221309 | 63 | 299 | 2.0 | 5.0 | 0.00 | 0.00 | 0.00 | 41 | 1016.0 |
| 20260503220809 | 63 | 32 | 3.0 | 3.0 | 0.00 | 0.00 | 0.00 | 40 | 1016.2 |
| 20260503220310 | 63 | 27 | 2.0 | 3.0 | 0.00 | 0.00 | 0.00 | 40 | 1016.3 |
| 20260503215309 | 63 | 81 | 4.0 | 8.0 | 0.00 | 0.00 | 0.00 | 39 | 1016.4 |
| 20260503214809 | 63 | 75 | 2.0 | 5.0 | 0.00 | 0.00 | 0.00 | 40 | 1016.6 |
| 20260503214311 | 63 | 4 | 2.0 | 7.0 | 0.00 | 0.00 | 0.00 | 40 | 1016.7 |
| 20260503213809 | 63 | 100 | 2.0 | 3.0 | 0.00 | 0.00 | 0.00 | 40 | 1016.7 |
| 20260503213309 | 63 | 275 | 2.0 | 3.0 | 0.00 | 0.00 | 0.00 | 42 | 1016.7 |
| 20260503212809 | 63 | 94 | 2.0 | 6.0 | 0.00 | 0.00 | 0.00 | 40 | 1016.7 |
| 20260503212309 | 64 | 330 | 2.0 | 3.0 | 0.00 | 0.00 | 0.00 | 38 | 1016.4 |
| 20260503211809 | 64 | 6 | 1.0 | 3.0 | 0.00 | 0.00 | 0.00 | 40 | 1016.3 |
| 20260503211309 | 64 | 116 | 1.0 | 5.0 | 0.00 | 0.00 | 0.00 | 40 | 1016.5 |
| 20260503210809 | 63 | 160 | 1.0 | 3.0 | 0.00 | 0.00 | 0.00 | 39 | 1016.9 |
| 20260503210309 | 63 | 64 | 1.0 | 5.0 | 0.00 | 0.00 | 0.00 | 39 | 1017.0 |
| 20260503205809 | 63 | 56 | 2.0 | 5.0 | 0.00 | 0.00 | 0.00 | 38 | 1017.0 |
| 20260503205309 | 63 | 69 | 1.0 | 5.0 | 0.00 | 0.00 | 0.00 | 36 | 1016.9 |
| 20260503204809 | 63 | 326 | 2.0 | 5.0 | 0.00 | 0.00 | 0.00 | 37 | 1017.0 |
| 20260503204309 | 63 | 61 | 3.0 | 8.0 | 0.00 | 0.00 | 0.00 | 38 | 1017.0 |
| 20260503203809 | 63 | 2 | 2.0 | 6.0 | 0.00 | 0.00 | 0.00 | 37 | 1017.0 |
| 20260503203309 | 64 | 111 | 2.0 | 8.0 | 0.00 | 0.00 | 0.00 | 38 | 1017.2 |
| 20260503202809 | 64 | 312 | 1.0 | 3.0 | 0.00 | 0.00 | 0.00 | 37 | 1017.2 |
| 20260503202309 | 64 | 54 | 1.0 | 3.0 | 0.00 | 0.00 | 0.00 | 37 | 1017.2 |
| 20260503201809 | 64 | 29 | 2.0 | 6.0 | 0.00 | 0.00 | 0.00 | 39 | 1017.4 |
| 20260503201309 | 63 | 17 | 2.0 | 7.0 | 0.00 | 0.00 | 0.00 | 37 | 1017.5 |
| 20260503200810 | 63 | 59 | 2.0 | 7.0 | 0.00 | 0.00 | 0.00 | 37 | 1017.7 |
| 20260503195809 | 63 | 98 | 2.0 | 6.0 | 0.00 | 0.00 | 0.00 | 37 | 1018.0 |
| 20260503195309 | 63 | 104 | 3.0 | 9.0 | 0.00 | 0.00 | 0.00 | 36 | 1018.1 |
| 20260503194809 | 63 | 141 | 2.0 | 3.0 | 0.00 | 0.00 | 0.00 | 37 | 1018.2 |
| 20260503194309 | 63 | 197 | 2.0 | 9.0 | 0.00 | 0.00 | 0.00 | 36 | 1018.3 |
| 20260503193809 | 63 | 117 | 3.0 | 5.0 | 0.00 | 0.00 | 0.00 | 38 | 1018.4 |
| 20260503193309 | 64 | 332 | 3.0 | 7.0 | 0.00 | 0.00 | 0.00 | 36 | 1018.5 |
| 20260503191809 | 64 | 121 | 2.0 | 5.0 | 0.00 | 0.00 | 0.00 | 36 | 1018.7 |
| 20260503191309 | 64 | 229 | 1.0 | 6.0 | 0.00 | 0.00 | 0.00 | 36 | 1018.8 |
| 20260503190809 | 64 | 136 | 3.0 | 6.0 | 0.00 | 0.00 | 0.00 | 35 | 1018.7 |
| 20260503190309 | 64 | 196 | 2.0 | 7.0 | 0.00 | 0.00 | 0.00 | 37 | 1018.9 |
| 20260503185810 | 64 | 18 | 3.0 | 6.0 | 0.00 | 0.00 | 0.00 | 37 | 1019.4 |
| 20260503185309 | 64 | 273 | 1.0 | 3.0 | 0.00 | 0.00 | 0.00 | 35 | 1019.6 |
| 20260503184809 | 64 | 188 | 1.0 | 6.0 | 0.00 | 0.00 | 0.00 | 34 | 1019.7 |
| 20260503184309 | 64 | 64 | 1.0 | 7.0 | 0.00 | 0.00 | 0.00 | 34 | 1019.8 |
| 20260503183809 | 64 | 59 | 2.0 | 7.0 | 0.00 | 0.00 | 0.00 | 34 | 1019.9 |
| 20260503183309 | 64 | 144 | 1.0 | 3.0 | 0.00 | 0.00 | 0.00 | 35 | 1019.9 |
| 20260503182809 | 64 | 175 | 1.0 | 5.0 | 0.00 | 0.00 | 0.00 | 35 | 1020.0 |
| 20260503181309 | 64 | 81 | 2.0 | 5.0 | 0.00 | 0.00 | 0.00 | 38 | 1020.1 |
| 20260503180809 | 64 | 93 | 3.0 | 6.0 | 0.00 | 0.00 | 0.00 | 34 | 1020.1 |
| 20260503180309 | 64 | 167 | 3.0 | 7.0 | 0.00 | 0.00 | 0.00 | 35 | 1020.2 |
| 20260503175809 | 65 | 60 | 3.0 | 6.0 | 0.00 | 0.00 | 0.00 | 34 | 1020.3 |
| 20260503175309 | 64 | 123 | 2.0 | 5.0 | 0.00 | 0.00 | 0.00 | 37 | 1020.3 |
| 20260503174809 | 64 | 97 | 2.0 | 5.0 | 0.00 | 0.00 | 0.00 | 34 | 1020.3 |
| 20260503174310 | 63 | 101 | 2.0 | 3.0 | 0.00 | 0.00 | 0.00 | 36 | 1020.5 |
| 20260503173809 | 64 | 52 | 2.0 | 3.0 | 0.00 | 0.00 | 0.00 | 35 | 1020.7 |
| 20260503173309 | 64 | 147 | 2.0 | 3.0 | 0.00 | 0.00 | 0.00 | 35 | 1020.9 |
| 20260503172809 | 63 | 278 | 1.0 | 3.0 | 0.00 | 0.00 | 0.00 | 36 | 1020.9 |
| 20260503172309 | 62 | 301 | 3.0 | 5.0 | 0.00 | 0.00 | 0.00 | 37 | 1020.9 |
| 20260503171809 | 62 | 34 | 2.0 | 6.0 | 0.00 | 0.00 | 0.00 | 40 | 1021.1 |
| 20260503171309 | 63 | 132 | 3.0 | 8.0 | 0.00 | 0.00 | 0.00 | 36 | 1021.1 |
| 20260503170809 | 62 | 134 | 1.0 | 3.0 | 0.00 | 0.00 | 0.00 | 37 | 1021.1 |
| 20260503170309 | 62 | 121 | 4.0 | 7.0 | 0.00 | 0.00 | 0.00 | 35 | 1021.1 |
| 20260503150809 | 58 | 121 | 1.0 | 5.0 | 0.00 | 0.00 | 0.00 | 40 | 1022.9 |
| 20260503150309 | 57 | 81 | 2.0 | 3.0 | 0.00 | 0.00 | 0.00 | 42 | 1023.0 |
| 20260503140309 | 51 | 340 | 1.0 | 2.0 | 0.00 | 0.00 | 0.00 | 60 | 1022.5 |
| 20260503131309 | 48 | 136 | 1.0 | 2.0 | 0.00 | 0.00 | 0.00 | 66 | 1022.4 |
| 20260503110809 | 37 | 98 | 1.0 | 2.0 | 0.00 | 0.00 | 0.00 | 93 | 1020.8 |
| 20260503110309 | 37 | 115 | 1.0 | 2.0 | 0.00 | 0.00 | 0.00 | 92 | 1020.7 |
| 20260503090308 | 38 | 56 | 1.0 | 2.0 | 0.00 | 0.00 | 0.00 | 88 | 1020.5 |
| 20260503081309 | 38 | 44 | 1.0 | 2.0 | 0.00 | 0.00 | 0.00 | 91 | 1020.4 |
| 20260503080808 | 38 | 28 | 1.0 | 1.0 | 0.00 | 0.00 | 0.00 | 90 | 1020.3 |
| 20260503072808 | 39 | 61 | 2.0 | 2.0 | 0.00 | 0.00 | 0.00 | 89 | 1020.0 |
| 20260503072308 | 39 | 52 | 1.0 | 2.0 | 0.00 | 0.00 | 0.00 | 89 | 1020.0 |
| 20260503071808 | 39 | 75 | 1.0 | 2.0 | 0.00 | 0.00 | 0.00 | 89 | 1019.9 |
| 20260503070808 | 39 | 92 | 1.0 | 2.0 | 0.00 | 0.00 | 0.00 | 89 | 1020.0 |
| 20260503060309 | 41 | 69 | 1.0 | 2.0 | 0.00 | 0.00 | 0.00 | 85 | 1020.2 |
| 20260503053809 | 42 | 97 | 1.0 | 2.0 | 0.00 | 0.00 | 0.00 | 84 | 1020.2 |
| 20260503053309 | 42 | 187 | 1.0 | 2.0 | 0.00 | 0.00 | 0.00 | 82 | 1020.1 |
| 20260503052809 | 42 | 33 | 1.0 | 2.0 | 0.00 | 0.00 | 0.00 | 82 | 1020.2 |
| 20260503051309 | 42 | 79 | 1.0 | 2.0 | 0.00 | 0.00 | 0.00 | 84 | 1020.2 |
| 20260503050809 | 42 | 53 | 1.0 | 2.0 | 0.00 | 0.00 | 0.00 | 85 | 1020.2 |
| 20260503050309 | 43 | 48 | 1.0 | 1.0 | 0.00 | 0.00 | 0.00 | 85 | 1020.3 |
| 20260503045809 | 43 | 44 | 1.0 | 2.0 | 0.00 | 0.00 | 0.00 | 84 | 1020.2 |
| 20260503044809 | 43 | 59 | 1.0 | 2.0 | 0.00 | 0.00 | 0.00 | 83 | 1020.2 |
| 20260503044310 | 43 | 63 | 1.0 | 1.0 | 0.00 | 0.00 | 0.00 | 83 | 1020.2 |
| 20260503043809 | 44 | 85 | 1.0 | 1.0 | 0.00 | 0.00 | 0.00 | 83 | 1020.1 |
| 20260503043309 | 44 | 140 | 1.0 | 1.0 | 0.00 | 0.00 | 0.00 | 82 | 1020.1 |
| 20260503042809 | 44 | 48 | 1.0 | 1.0 | 0.00 | 0.00 | 0.00 | 82 | 1020.1 |
| 20260503042309 | 44 | 67 | 1.0 | 1.0 | 0.00 | 0.00 | 0.00 | 82 | 1020.1 |
| 20260503041310 | 45 | 65 | 1.0 | 2.0 | 0.00 | 0.00 | 0.00 | 81 | 1020.1 |
| 20260503040841 | 45 | 56 | 1.0 | 2.0 | 0.00 | 0.00 | 0.00 | 81 | 1020.1 |
| 20260503040309 | 45 | 0 | 1.0 | 2.0 | 0.00 | 0.00 | 0.00 | 80 | 1020.1 |
| 20260503035309 | 45 | 62 | 1.0 | 1.0 | 0.00 | 0.00 | 0.00 | 83 | 1020.1 |
| 20260503034309 | 46 | 59 | 1.0 | 1.0 | 0.00 | 0.00 | 0.00 | 82 | 1020.0 |
| 20260503033810 | 46 | 344 | 1.0 | 2.0 | 0.00 | 0.00 | 0.00 | 76 | 1020.0 |
| 20260503032810 | 45 | 11 | 1.0 | 2.0 | 0.00 | 0.00 | 0.00 | 78 | 1020.0 |
| 20260503032310 | 45 | 67 | 1.0 | 2.0 | 0.00 | 0.00 | 0.00 | 81 | 1020.0 |
| 20260503031810 | 45 | 85 | 1.0 | 1.0 | 0.00 | 0.00 | 0.00 | 82 | 1020.0 |
| 20260503031310 | 45 | 20 | 1.0 | 1.0 | 0.00 | 0.00 | 0.00 | 84 | 1019.9 |
| 20260503030811 | 45 | 151 | 1.0 | 1.0 | 0.00 | 0.00 | 0.00 | 86 | 1019.9 |
| 20260503030310 | 45 | 145 | 1.0 | 1.0 | 0.00 | 0.00 | 0.00 | 87 | 1019.8 |
| 20260503025810 | 45 | 29 | 1.0 | 2.0 | 0.00 | 0.00 | 0.00 | 86 | 1019.8 |
| 20260503023809 | 45 | 33 | 1.0 | 1.0 | 0.00 | 0.00 | 0.00 | 86 | 1019.6 |
| 20260503022809 | 45 | 102 | 1.0 | 1.0 | 0.00 | 0.00 | 0.00 | 84 | 1019.5 |
| 20260503022309 | 45 | 40 | 1.0 | 2.0 | 0.00 | 0.00 | 0.00 | 83 | 1019.4 |
| 20260503021809 | 45 | 33 | 1.0 | 2.0 | 0.00 | 0.00 | 0.00 | 82 | 1019.2 |
| 20260503021309 | 46 | 86 | 1.0 | 1.0 | 0.00 | 0.00 | 0.00 | 82 | 1019.1 |
| 20260503020809 | 46 | 67 | 1.0 | 2.0 | 0.00 | 0.00 | 0.00 | 81 | 1019.1 |
| 20260503020311 | 46 | 65 | 1.0 | 1.0 | 0.00 | 0.00 | 0.00 | 80 | 1019.1 |
| 20260503015809 | 46 | 87 | 0.0 | 2.0 | 0.00 | 0.00 | 0.00 | 80 | 1019.1 |
| 20260503015309 | 46 | 65 | 1.0 | 1.0 | 0.00 | 0.00 | 0.00 | 80 | 1019.0 |
| 20260503014809 | 46 | 15 | 1.0 | 1.0 | 0.00 | 0.00 | 0.00 | 80 | 1019.0 |
| 20260503014309 | 47 | 45 | 1.0 | 1.0 | 0.00 | 0.00 | 0.00 | 80 | 1018.9 |
| 20260503013810 | 47 | 83 | 1.0 | 1.0 | 0.00 | 0.00 | 0.00 | 79 | 1018.9 |
| 20260503013309 | 47 | 63 | 0.0 | 1.0 | 0.00 | 0.00 | 0.00 | 79 | 1018.7 |
| 20260503012809 | 47 | 63 | 1.0 | 1.0 | 0.00 | 0.00 | 0.00 | 78 | 1018.7 |
| 20260503012309 | 47 | 86 | 1.0 | 2.0 | 0.00 | 0.00 | 0.00 | 78 | 1018.6 |
| 20260503011309 | 48 | 74 | 1.0 | 1.0 | 0.00 | 0.00 | 0.00 | 78 | 1018.6 |
| 20260503010809 | 48 | 75 | 1.0 | 1.0 | 0.00 | 0.00 | 0.00 | 78 | 1018.5 |
| 20260503010309 | 49 | 45 | 1.0 | 2.0 | 0.00 | 0.00 | 0.00 | 77 | 1018.5 |
| 20260503005809 | 49 | 78 | 1.0 | 2.0 | 0.00 | 0.00 | 0.00 | 77 | 1018.5 |
| 20260503004809 | 49 | 113 | 1.0 | 1.0 | 0.00 | 0.00 | 0.00 | 75 | 1018.3 |
| 20260503004309 | 49 | 55 | 1.0 | 1.0 | 0.00 | 0.00 | 0.00 | 76 | 1018.3 |
| 20260503003309 | 50 | 50 | 1.0 | 2.0 | 0.00 | 0.00 | 0.00 | 75 | 1018.3 |
| 20260503002809 | 50 | 28 | 1.0 | 1.0 | 0.00 | 0.00 | 0.00 | 74 | 1018.3 |